Starlink 34164

operational
NORAD ID: 64177 Int'l Des: 2025-113 Owner: SPXS Country: US Constellation: starlink
LEOCIRCULAR

About Starlink 34164

Description loading...

Live Position

Loading 3D Globe...

Upcoming Passes

Altitude History

Altitude vs Time

uPlot chart will show altitude changes over time

Two-Line Element Set

1 64177U 25113H 26062.42907906 .00022458 00000-0 76828-3 0 9995
2 64177 53.1603 120.4241 0001267 57.4372 302.6751 15.30192152 44105
Epoch: Mar 3, 2026 • Age: 35 hours

Current Status

Altitude 484.4 km
Velocity 7.62 km/s
Sub-Earth Point -28.30°S, 4.14°W
Launch Date May 28, 2025
Age 0.7 years
Type internet

Technical Details

Classification Payload
Mass 575.00 kg
Dry Mass 530.00 kg
Total Mass 575.00 kg
Length 0.30 m
Diameter 4.10 m
Span 29.00 m
Shape Box + pan
Manufacturer SPXS
Bus Type Starlink V2MO
Phase Status In Orbit
Owner/State SPXS/US

Large Constellations

Loading constellations...